Temperature
33 33 33 33 33 33 33 33 32 33 34 34 33 32 32 33 32 31 30 29 27 26 26 25 24 24 23 22 21 21 21 20 20 20 20 19 19 19 19 19 19 19 19 19
33 32 34 34 34 33 33 33 33 33 35 34 33 32 32 32 32 32 30 29 28 27 26 25 24 24 23 22 21 21 21 21 20 20 20 19 19 19 19 19 19 19 19 19
32 33 34 34 34 33 33 33 33 33 34 34 33 31 31 31 31 31 31 30 29 28 26 25 25 24 23 22 22 21 21 21 20 20 20 19 19 19 19 19 19 19 19 19
33 34 34 34 33 33 33 34 34 33 33 33 33 30 30 30 30 31 31 31 30 29 27 26 25 24 24 23 22 22 21 21 21 20 20 19 19 19 19 19 19 19 19 18
32 33 33 33 34 34 34 34 34 33 32 32 33 31 30 30 30 31 31 31 30 29 28 27 26 25 24 23 22 22 21 21 21 20 20 20 20 19 19 19 19 19 19 18
33 34 34 34 34 35 34 34 33 33 32 31 32 31 29 30 30 32 32 31 30 30 29 27 26 25 24 24 23 22 22 21 21 21 20 20 20 19 19 19 19 19 18 18
31 33 34 34 33 34 34 32 31 30 30 30 32 32 30 32 33 33 32 31 31 30 29 28 27 25 24 24 23 22 22 21 21 21 20 20 20 20 19 19 19 18 18 18
30 31 33 33 33 33 33 32 30 29 29 30 31 31 32 33 34 33 32 31 31 30 29 28 26 25 24 24 23 22 22 21 21 21 20 20 20 19 19 19 18 18 18 18
31 31 33 34 34 33 32 33 33 32 31 30 30 31 32 33 33 33 32 32 31 30 29 28 26 25 24 23 23 22 22 21 21 21 20 20 20 19 19 19 18 18 18 18
32 31 33 33 33 33 33 33 33 32 30 30 31 31 31 32 32 32 32 32 31 30 29 28 27 25 24 24 23 22 22 21 21 20 20 20 20 19 19 19 18 18 18 18
32 31 32 32 32 32 32 32 32 32 32 30 30 30 32 31 32 32 32 31 31 30 29 28 27 26 24 23 23 22 21 21 21 21 20 20 20 19 19 19 18 18 18 18
31 31 30 31 33 33 33 32 32 31 30 31 31 30 33 32 32 32 31 30 30 29 28 27 26 25 24 23 23 22 21 21 21 20 20 20 19 19 19 18 18 18 18 18
31 30 29 29 31 32 32 33 33 33 32 31 31 30 32 32 32 31 30 29 29 28 28 27 26 25 24 23 23 22 21 21 20 20 20 20 19 19 19 18 18 18 18 17
30 29 29 29 30 31 31 32 33 33 31 31 31 31 31 32 31 30 30 29 28 28 27 26 25 24 24 23 22 22 21 21 20 20 20 19 19 18 18 18 18 17 17 17
30 28 29 30 31 32 32 32 32 32 32 32 32 31 31 31 31 30 29 29 28 27 26 25 25 24 23 22 22 21 21 21 20 20 19 19 19 18 18 18 17 17 17 16
28 28 28 28 30 31 31 32 32 32 32 32 32 31 32 31 30 29 29 28 28 27 26 25 24 23 22 22 21 21 21 20 20 20 19 19 18 18 18 17 17 17 17 16
28 26 26 27 29 30 30 31 32 32 33 32 32 31 32 30 30 29 28 28 27 27 26 25 24 23 22 21 21 21 20 20 20 19 19 18 18 18 17 17 16 16 16 16
26 26 26 27 28 27 30 33 33 32 32 33 33 32 32 31 29 28 28 27 27 26 25 24 23 22 22 21 21 21 20 20 19 19 19 18 17 17 17 16 16 16 16 16
27 26 26 26 27 28 30 32 32 31 31 32 32 31 31 30 29 28 27 27 26 25 25 24 23 22 22 21 20 20 20 19 19 19 18 18 17 17 16 16 16 16 15 15
27 26 26 26 26 26 29 32 32 32 30 31 31 31 30 29 28 28 27 26 25 24 23 23 22 22 21 21 20 20 19 19 19 18 18 17 17 17 16 16 16 15 15 15
25 25 25 25 26 27 29 31 31 29 28 30 30 30 29 28 28 26 25 25 24 23 22 22 21 21 21 20 20 19 19 18 18 18 17 17 17 17 16 16 15 15 15 15
25 25 24 25 25 26 29 30 29 27 28 28 28 28 27 27 26 25 24 23 23 22 22 21 21 20 20 20 19 19 18 18 18 17 17 17 16 16 16 16 15 15 15 14
25 25 26 25 25 26 27 26 26 27 27 27 27 26 26 25 24 23 23 22 22 21 21 20 20 20 19 19 19 18 18 18 17 17 17 16 16 16 16 15 15 15 14 14
25 25 25 24 25 25 25 25 25 25 26 26 26 25 25 24 24 23 22 21 21 20 20 20 19 19 19 18 18 18 18 17 17 16 16 16 16 15 15 15 15 14 14 14
24 25 24 23 24 24 24 24 24 24 24 25 24 24 24 24 23 22 21 20 20 20 19 19 19 18 18 18 18 17 17 17 16 16 16 15 15 15 15 15 14 14 14 14
23 23 23 22 23 23 23 22 23 23 23 23 23 23 23 22 22 21 20 19 19 19 19 18 18 18 18 17 17 17 17 17 16 16 15 15 15 15 14 14 14 14 14 14
Wind_Speed
12 13 13 10 8 6 7 5 3 3 4 5 7 8 9 11 12 14 15 15 14 14 13 12 12 12 11 9 9 8 6 5 4 3 3 3 2 2 2 1 2 1 2 2
13 16 14 10 7 6 9 8 4 3 4 4 5 7 6 7 9 12 14 15 15 15 14 13 11 11 11 10 9 8 7 6 5 3 3 2 2 2 2 1 1 1 2 3
18 12 12 11 10 9 11 9 5 4 5 7 7 6 6 5 7 9 12 14 15 16 16 14 13 11 12 11 10 9 8 7 6 4 3 2 1 1 0 1 1 2 2 2
16 14 11 13 13 12 11 7 6 6 8 6 6 4 6 9 9 9 11 13 15 16 17 16 14 13 12 12 11 9 8 7 6 5 4 4 3 2 2 1 1 1 2 2
15 15 14 14 14 13 9 5 6 9 10 10 8 4 4 8 10 10 11 12 13 15 16 16 15 13 12 11 11 10 8 7 6 5 4 3 3 2 1 1 2 2 2 2
17 14 13 14 13 11 8 6 8 10 11 11 10 5 5 9 10 10 11 11 12 13 14 14 14 13 11 10 10 10 9 7 6 5 4 4 3 2 1 0 0 1 1 1
17 16 13 13 14 12 11 10 8 8 8 8 6 5 5 9 10 9 10 11 11 12 12 13 13 12 11 10 10 10 9 7 6 6 4 3 3 2 1 1 1 1 1 0
17 16 16 14 15 12 14 15 11 8 7 5 5 5 5 7 8 9 8 9 12 12 12 12 12 12 11 10 10 9 9 8 7 6 4 3 2 2 1 1 1 1 1 2
13 17 17 15 14 14 14 15 16 13 12 7 6 5 7 8 10 10 9 9 12 12 12 13 13 13 12 11 10 10 9 8 7 6 5 3 3 1 0 0 0 1 2 1
13 11 15 16 13 16 16 13 10 11 9 9 8 8 7 11 11 10 9 10 11 12 13 13 13 13 12 11 10 9 9 7 6 5 4 4 3 2 1 1 2 2 2 3
16 11 13 15 16 18 16 15 11 9 10 9 6 2 5 6 8 11 11 9 10 10 12 13 12 13 13 12 11 10 9 8 6 5 4 3 4 3 2 2 2 2 2 3
14 11 11 15 15 15 17 17 15 10 9 9 8 2 4 7 8 9 10 10 8 10 10 13 13 12 11 11 11 10 9 8 7 6 5 4 4 3 3 3 2 2 2 2
11 10 11 13 14 16 16 17 18 16 12 11 10 4 6 6 6 9 11 10 9 10 10 11 11 11 10 10 10 10 9 8 8 7 7 5 4 4 4 3 3 3 3 3
7 11 13 14 12 15 17 18 18 17 12 13 11 7 8 9 8 8 12 11 11 11 10 10 10 10 10 10 9 9 9 8 8 8 7 6 5 4 4 4 4 3 3 3
8 12 15 16 15 14 16 18 19 18 16 14 10 10 10 8 8 8 11 11 11 11 11 10 10 10 9 9 9 8 8 8 8 8 7 6 5 5 5 4 4 4 4 5
8 10 13 16 17 16 16 17 18 19 17 16 13 7 8 8 8 7 8 10 11 10 11 11 10 10 10 9 8 8 8 8 8 7 7 7 6 5 5 5 5 5 5 5
11 9 12 15 18 17 19 18 17 15 15 14 12 8 7 9 10 9 9 8 9 10 10 11 11 10 9 9 8 8 9 8 8 7 7 7 6 6 5 5 5 5 5 5
9 9 10 14 15 18 14 14 15 15 14 13 9 7 7 8 9 8 8 9 9 9 9 10 10 10 9 9 9 8 9 9 8 7 6 6 6 6 5 5 5 5 5 5
11 9 10 12 15 16 14 13 14 13 11 10 8 6 6 7 8 7 8 8 8 8 8 8 9 9 9 9 9 9 9 8 8 7 7 6 6 6 6 5 6 5 5 5
14 10 12 12 14 14 11 12 11 10 9 7 6 6 7 7 7 5 8 10 10 8 7 7 8 9 8 9 9 8 8 7 7 7 6 6 6 6 6 6 6 6 5 5
16 15 16 15 14 11 7 6 9 11 5 0 2 3 5 3 2 6 8 9 10 9 9 8 8 7 7 8 8 8 8 7 6 6 6 6 6 6 6 6 6 6 6 5
14 15 15 14 14 10 4 7 4 1 3 2 2 4 6 6 7 8 7 8 9 9 9 9 8 7 6 7 8 8 7 7 7 7 6 6 6 6 7 7 6 6 6 6
11 9 7 6 5 1 4 4 4 3 3 3 2 4 6 7 7 8 8 7 8 8 9 8 8 7 6 7 8 8 7 7 8 8 7 7 6 6 6 6 6 5 4 5
8 5 4 2 2 2 1 1 2 2 2 2 2 3 5 6 7 8 7 6 6 7 8 7 8 7 7 8 8 7 8 8 8 8 7 7 7 7 6 4 4 4 3 3
4 5 5 4 3 1 1 1 2 2 2 2 2 2 3 5 8 8 7 6 5 5 6 7 7 7 8 8 8 8 8 8 9 8 7 7 7 7 6 4 3 3 3 2
5 4 5 4 3 3 2 1 1 0 1 3 2 1 3 5 7 8 7 5 5 5 5 6 7 8 8 9 8 8 8 9 9 8 7 6 6 6 6 6 6 10 8 9
Wind_Direction
224 232 235 230 225 243 263 257 204 188 171 178 154 163 175 170 173 168 169 169 171 169 170 165 167 165 160 158 161 161 172 168 176 190 203 213 210 218 210 181 147 151 286 296
228 231 238 242 213 220 255 256 229 223 195 207 171 174 183 179 187 178 173 171 172 170 169 168 171 169 164 165 165 166 177 175 188 199 207 211 220 224 194 143 132 183 247 275
231 232 228 238 238 226 241 246 231 248 248 232 211 197 165 197 205 184 177 174 175 174 173 174 178 176 174 173 175 180 178 176 187 188 201 220 192 256 218 167 178 214 233 251
236 240 238 236 240 237 240 236 242 251 261 259 232 214 175 188 209 194 188 179 178 177 175 176 179 179 181 177 176 175 171 173 179 190 204 206 201 210 206 189 178 202 223 255
232 230 233 236 237 238 245 235 244 253 262 268 261 240 194 182 206 198 191 182 177 178 175 175 177 177 181 178 173 169 164 169 175 186 197 206 222 226 214 188 172 207 224 248
245 235 227 237 238 239 238 233 247 253 256 252 253 242 187 187 195 185 179 178 176 175 171 171 173 169 173 173 170 164 161 167 172 183 193 200 216 241 288 21 281 228 236 241
234 235 224 232 233 225 229 231 236 239 239 248 248 244 181 178 174 165 160 170 175 171 169 165 162 159 163 167 162 158 157 165 171 176 185 192 203 204 231 256 261 280 326 351
217 222 218 219 226 217 222 233 235 246 246 246 234 233 174 161 138 140 147 161 164 164 164 158 154 154 158 159 155 154 157 164 169 171 173 180 180 191 213 248 298 2 2 18
222 221 209 210 219 232 223 230 240 253 261 257 226 207 182 167 148 146 154 159 155 157 156 156 156 157 159 158 155 154 152 155 159 163 159 160 143 156 216 117 325 18 12 20
253 238 207 200 212 230 245 238 243 247 261 264 234 214 196 165 157 155 156 152 151 156 157 154 154 154 153 151 146 144 144 146 145 153 159 151 141 140 117 73 71 46 22 18
246 248 218 202 207 219 224 236 243 252 257 263 257 240 162 162 161 159 152 147 148 148 146 144 144 144 144 143 143 140 139 139 139 141 137 125 125 123 114 90 72 61 39 20
234 244 233 217 216 229 229 228 232 238 252 263 268 232 130 157 169 153 140 138 139 133 135 139 139 138 142 144 144 143 144 145 145 139 129 123 120 119 113 100 82 70 61 44
222 240 237 225 215 216 235 233 233 231 235 246 253 195 151 152 144 138 136 139 140 133 132 134 137 140 141 140 138 142 146 146 144 137 131 129 125 118 108 94 83 75 67 53
236 236 240 233 224 212 221 234 235 237 236 235 236 201 185 163 142 139 144 153 148 140 139 140 137 137 135 134 135 140 142 142 139 135 133 131 127 120 111 101 93 86 82 73
233 235 245 259 263 248 228 225 227 234 242 245 230 207 201 166 155 156 154 153 147 145 146 141 141 136 135 138 142 141 139 135 135 137 138 139 131 121 113 109 102 90 81 79
227 249 247 251 255 255 249 236 226 227 235 244 243 214 163 142 149 156 160 154 151 153 152 145 139 139 142 144 148 142 138 135 135 139 141 134 128 125 121 115 104 93 83 73
211 231 245 245 241 246 241 236 235 231 230 236 241 220 168 158 163 158 159 160 157 156 152 149 148 148 147 149 145 142 140 139 138 137 136 133 133 132 127 122 112 104 95 84
217 222 236 246 246 241 242 238 237 238 238 233 229 204 181 166 152 154 158 154 154 153 149 145 145 148 149 146 143 141 143 144 143 141 139 138 139 135 125 118 114 108 103 95
213 219 231 236 238 240 240 231 232 232 236 236 226 200 183 162 155 159 147 141 143 144 139 142 144 146 145 144 143 142 144 145 146 144 143 141 138 134 130 122 117 112 108 103
209 211 233 238 239 238 237 227 228 233 231 231 211 199 181 175 193 168 142 138 134 127 121 125 132 136 136 140 141 141 140 142 143 141 139 134 134 133 130 124 120 117 115 112
205 207 223 238 241 245 255 247 220 221 217 231 207 171 157 164 138 126 124 122 121 123 125 127 130 125 128 131 134 136 136 138 135 132 129 129 129 127 124 118 120 123 119 113
210 207 215 232 237 233 264 236 231 123 64 74 85 101 112 104 108 120 125 124 128 131 130 129 121 117 123 130 134 133 135 135 130 127 127 126 128 131 125 123 125 126 128 127
223 224 213 222 231 26 16 68 75 76 82 76 90 114 121 128 132 136 138 135 134 132 130 129 127 125 129 135 137 139 138 135 132 128 128 128 126 117 124 133 138 141 149 150
219 225 216 192 198 236 359 31 67 62 71 82 109 138 142 153 151 139 130 130 134 135 135 136 135 136 137 138 136 137 139 138 136 137 136 136 133 128 126 134 142 148 153 154
249 222 212 208 221 247 335 16 26 62 67 120 145 158 160 153 142 137 136 140 137 134 140 143 143 145 145 142 139 144 145 143 143 144 143 142 141 140 135 115 81 107 78 91
270 268 238 221 221 217 156 35 344 98 135 116 114 114 103 124 131 133 138 141 143 143 142 144 146 150 147 146 146 150 152 150 149 152 156 158 157 150 145 130 100 58 75 78
Height
1489 1490 1489 1485 1483 1486 1487 1490 1493 1488 1483 1486 1492 1497 1496 1499 1502 1507 1512 1517 1522 1526 1531 1534 1537 1539 1541 1542 1543 1544 1545 1546 1547 1548 1549 1549 1550 1551 1551 1552 1552 1552 1552 1552
1488 1489 1481 1478 1480 1483 1488 1491 1490 1486 1480 1485 1491 1495 1495 1498 1501 1503 1508 1513 1518 1523 1528 1531 1534 1537 1539 1540 1541 1542 1543 1545 1546 1547 1547 1549 1549 1550 1550 1550 1550 1550 1550 1550
1487 1481 1477 1479 1481 1486 1488 1489 1490 1490 1483 1482 1489 1499 1497 1498 1499 1502 1504 1509 1514 1519 1524 1528 1532 1535 1537 1538 1539 1541 1542 1543 1545 1546 1547 1548 1548 1549 1549 1550 1549 1549 1549 1548
1481 1476 1477 1480 1482 1483 1490 1481 1484 1487 1492 1493 1490 1512 1504 1499 1499 1500 1501 1505 1510 1515 1520 1524 1528 1532 1534 1536 1537 1539 1540 1542 1543 1545 1546 1547 1547 1548 1548 1548 1548 1548 1547 1547
1479 1476 1478 1481 1479 1478 1481 1477 1482 1485 1492 1496 1491 1504 1509 1498 1502 1498 1498 1501 1506 1511 1516 1521 1525 1528 1532 1534 1536 1537 1539 1540 1542 1543 1544 1545 1546 1547 1547 1547 1547 1547 1546 1546
1474 1471 1473 1475 1474 1475 1476 1481 1485 1487 1492 1508 1497 1502 1514 1499 1495 1492 1494 1498 1503 1508 1513 1518 1522 1526 1530 1532 1534 1536 1537 1539 1540 1541 1543 1544 1545 1545 1546 1546 1546 1546 1546 1545
1480 1473 1471 1473 1476 1476 1479 1492 1508 1512 1513 1510 1491 1496 1501 1485 1483 1486 1490 1496 1501 1506 1511 1516 1520 1524 1527 1530 1533 1534 1536 1537 1539 1540 1541 1542 1543 1544 1544 1545 1545 1545 1545 1544
1487 1485 1472 1471 1475 1480 1482 1487 1508 1522 1520 1509 1497 1500 1489 1478 1480 1485 1489 1494 1499 1504 1509 1514 1518 1522 1525 1528 1531 1533 1535 1536 1538 1539 1540 1541 1542 1543 1543 1543 1544 1544 1544 1543
1476 1479 1466 1468 1471 1474 1481 1483 1479 1493 1499 1510 1503 1494 1484 1477 1480 1484 1488 1493 1497 1502 1507 1512 1517 1520 1524 1527 1530 1532 1534 1535 1537 1538 1540 1540 1541 1542 1542 1542 1543 1543 1542 1542
1466 1475 1465 1466 1470 1471 1473 1475 1482 1492 1508 1515 1505 1497 1492 1483 1482 1483 1487 1492 1497 1501 1506 1511 1515 1519 1523 1526 1529 1531 1533 1535 1536 1538 1539 1540 1540 1541 1541 1541 1541 1541 1541 1541
1465 1475 1470 1467 1474 1477 1478 1479 1480 1484 1488 1507 1514 1504 1476 1481 1479 1481 1486 1492 1496 1501 1505 1509 1514 1518 1522 1525 1528 1531 1532 1534 1536 1537 1538 1539 1540 1541 1541 1541 1541 1541 1540 1540
1466 1470 1476 1471 1464 1466 1469 1474 1478 1494 1496 1491 1498 1500 1472 1476 1479 1482 1486 1493 1497 1501 1506 1509 1513 1517 1521 1524 1527 1530 1532 1533 1535 1536 1537 1539 1540 1540 1540 1540 1540 1540 1540 1539
1466 1474 1486 1484 1477 1470 1471 1468 1469 1473 1482 1491 1498 1498 1475 1477 1479 1483 1488 1494 1498 1503 1506 1510 1514 1517 1521 1524 1527 1529 1531 1533 1534 1536 1537 1538 1539 1539 1540 1540 1540 1540 1539 1539
1467 1473 1480 1486 1478 1470 1473 1470 1467 1471 1483 1487 1487 1487 1479 1477 1480 1485 1490 1494 1499 1503 1507 1510 1514 1517 1521 1524 1526 1529 1531 1533 1534 1535 1536 1537 1538 1539 1539 1539 1539 1539 1539 1538
1468 1475 1474 1470 1464 1463 1465 1467 1466 1470 1471 1478 1477 1479 1479 1476 1481 1486 1490 1494 1498 1503 1507 1510 1514 1517 1520 1523 1526 1528 1530 1532 1533 1534 1536 1537 1537 1538 1538 1539 1539 1539 1539 1539
1470 1475 1476 1476 1468 1465 1465 1461 1462 1464 1466 1468 1469 1473 1470 1475 1481 1486 1490 1493 1498 1502 1506 1510 1513 1516 1520 1522 1525 1527 1529 1531 1532 1534 1535 1536 1537 1537 1538 1538 1539 1539 1539 1539
1470 1478 1483 1481 1471 1469 1473 1461 1460 1460 1460 1464 1470 1470 1469 1475 1478 1484 1488 1492 1497 1501 1505 1509 1512 1515 1518 1521 1523 1526 1528 1530 1531 1533 1534 1535 1536 1537 1538 1539 1539 1539 1539 1539
1471 1478 1480 1480 1478 1489 1465 1450 1452 1456 1458 1458 1461 1464 1468 1474 1478 1484 1488 1492 1496 1501 1505 1508 1511 1514 1517 1520 1523 1525 1527 1528 1530 1532 1533 1535 1535 1536 1537 1538 1538 1539 1539 1539
1467 1475 1479 1481 1483 1476 1459 1451 1451 1457 1461 1457 1460 1464 1469 1474 1480 1485 1489 1492 1497 1500 1504 1508 1511 1514 1516 1518 1521 1523 1526 1527 1529 1531 1532 1533 1535 1536 1536 1537 1538 1538 1539 1539
1465 1470 1478 1478 1484 1483 1462 1449 1450 1456 1465 1459 1461 1465 1470 1474 1481 1486 1489 1492 1497 1500 1503 1507 1510 1512 1515 1517 1520 1522 1524 1526 1528 1529 1531 1532 1534 1535 1535 1536 1537 1538 1538 1539
1468 1472 1477 1478 1478 1468 1454 1450 1451 1469 1470 1462 1463 1467 1470 1474 1479 1484 1487 1491 1496 1499 1503 1506 1508 1511 1514 1516 1518 1520 1523 1524 1526 1528 1530 1531 1533 1534 1535 1536 1537 1538 1539 1539
1465 1469 1474 1474 1477 1473 1455 1453 1458 1464 1463 1464 1467 1469 1473 1476 1480 1485 1488 1492 1495 1498 1502 1504 1507 1510 1512 1515 1517 1518 1521 1523 1525 1527 1529 1530 1532 1533 1534 1535 1536 1538 1538 1539
1458 1459 1461 1467 1468 1463 1461 1461 1463 1464 1465 1467 1470 1472 1475 1478 1482 1486 1490 1492 1495 1498 1501 1503 1506 1508 1511 1513 1515 1517 1519 1522 1523 1525 1527 1529 1531 1532 1533 1535 1536 1537 1538 1539
1456 1456 1459 1464 1464 1463 1464 1464 1465 1466 1468 1470 1472 1474 1476 1480 1483 1487 1490 1493 1496 1498 1500 1503 1505 1507 1510 1512 1514 1516 1518 1520 1522 1523 1525 1527 1529 1531 1532 1534 1535 1537 1538 1539
1457 1456 1458 1463 1465 1466 1466 1466 1467 1468 1470 1472 1474 1476 1478 1480 1483 1486 1489 1493 1495 1498 1500 1502 1504 1506 1508 1510 1512 1515 1516 1518 1520 1522 1524 1526 1528 1530 1531 1533 1534 1536 1537 1538
1458 1459 1460 1464 1466 1466 1467 1468 1470 1470 1471 1472 1474 1476 1478 1480 1483 1486 1489 1492 1495 1497 1499 1501 1503 1505 1507 1509 1511 1513 1515 1516 1518 1520 1522 1524 1527 1529 1530 1531 1533 1534 1536 1537